Location: Broletto
(44.6000°N, 10.5833°E)
Time: 07:07:00
(UTC+00:00)

SME Rocket - Pass Details

Date: 18 April 2021
Orbit: 550 x 2651 km, 99.9° (Epoch: 06 May)

Event Time Altitude Azimuth Distance (km) Brightness Sun altitude
Rises 19:00:29 0° 11° (N) 2,740 6.6 -9.8°
Reaches altitude 10° 19:02:28 10° 8° (N) 1,875 5.8 -10.1°
Maximum altitude 19:06:15 60° 288° (WNW) 734 3.8 -10.7°
Drops below altitude 10° 19:11:02 10° 209° (SSW) 2,354 6.0 -11.4°
Sets 19:13:45 0° 206° (SSW) 3,528 6.9 -11.9°
